FW1691 Weather Reports


time (UTC)temp
C
wind
direction
speed
KPH
gust
KPH
rain 1hr
cm
rain 24hr
cm
rain mn
cm
humidity
%
barometer
mb
20260507201013 11 273 11.3 25.7 0.00 0.00 0.00 37 1010.8
20260507200516 11 312 8.0 20.9 0.00 0.00 0.00 36 1010.8
20260507200031 11 258 6.4 20.9 0.00 0.00 0.00 36 1010.9
20260507195513 11 281 8.0 20.9 0.00 0.00 0.00 38 1010.8
20260507195013 11 300 6.4 22.5 0.00 0.00 0.00 36 1010.9
20260507194534 11 333 4.8 22.5 0.00 0.00 0.00 37 1010.9
20260507194017 11 271 6.4 19.3 0.00 0.00 0.00 40 1010.9
20260507193514 11 224 8.0 22.5 0.00 0.00 0.00 40 1010.9
20260507193037 11 240 8.0 22.5 0.00 0.00 0.00 42 1010.9
20260507192513 11 327 6.4 20.9 0.00 0.00 0.00 39 1011.0
20260507192015 11 331 6.4 19.3 0.00 0.00 0.00 43 1010.8
20260507191537 11 285 6.4 19.3 0.00 0.00 0.00 38 1010.9
20260507191017 11 336 9.7 19.3 0.00 0.00 0.00 35 1011.0
20260507190515 10 250 6.4 17.7 0.00 0.00 0.00 41 1011.0
20260507190034 10 292 6.4 20.9 0.00 0.00 0.00 41 1011.2
20260507185512 10 321 11.3 20.9 0.00 0.00 0.00 38 1011.2
20260507185012 10 340 8.0 25.7 0.00 0.00 0.00 40 1011.2
20260507184532 10 360 9.7 25.7 0.00 0.00 0.00 41 1011.0
20260507184014 10 253 8.0 32.2 0.00 0.00 0.00 40 1011.0
20260507183512 10 296 6.4 33.8 0.00 0.00 0.00 37 1011.1
20260507183034 10 329 14.5 33.8 0.00 0.00 0.00 40 1011.1
20260507182513 10 250 3.2 27.4 0.00 0.00 0.00 40 1011.2
20260507182013 10 264 3.2 27.4 0.00 0.00 0.00 42 1011.2
20260507181532 10 46 11.3 27.4 0.00 0.00 0.00 38 1011.2
20260507181020 10 325 16.1 27.4 0.00 0.00 0.00 38 1011.3
20260507180514 9 338 3.2 16.1 0.00 0.00 0.00 41 1011.3
20260507180038 9 321 6.4 24.1 0.00 0.00 0.00 40 1011.4
20260507175515 9 346 11.3 24.1 0.00 0.00 0.00 40 1011.5
20260507175017 9 314 8.0 24.1 0.00 0.00 0.00 39 1011.5
20260507174540 9 333 4.8 20.9 0.00 0.00 0.00 43 1011.5
20260507174015 9 17 11.3 20.9 0.00 0.00 0.00 39 1011.7
20260507173514 9 338 9.7 20.9 0.00 0.00 0.00 39 1011.6
20260507173052 9 321 9.7 29.0 0.00 0.00 0.00 39 1011.7
20260507172513 9 22 11.3 29.0 0.00 0.00 0.00 41 1011.6
20260507172013 9 32 9.7 20.9 0.00 0.00 0.00 45 1011.7
20260507171536 8 49 8.0 24.1 0.00 0.00 0.00 44 1011.8
20260507171014 8 32 12.9 24.1 0.00 0.00 0.00 41 1011.7
20260507170516 9 15 8.0 22.5 0.00 0.00 0.00 45 1011.8
20260507170038 8 326 9.7 22.5 0.00 0.00 0.00 44 1011.8
20260507165516 9 5 9.7 22.5 0.00 0.00 0.00 40 1011.7
20260507165015 8 46 9.7 32.2 0.00 0.00 0.00 43 1011.8
20260507164535 8 346 11.3 32.2 0.00 0.00 0.00 42 1011.9
20260507164013 8 34 11.3 27.4 0.00 0.00 0.00 42 1011.9
20260507163516 8 53 6.4 25.7 0.00 0.00 0.00 43 1011.9
20260507163032 8 351 8.0 25.7 0.00 0.00 0.00 46 1012.1
20260507162520 8 26 12.9 25.7 0.00 0.00 0.00 43 1011.9
20260507162016 7 331 8.0 25.7 0.00 0.00 0.00 43 1012.1
20260507161540 8 355 11.3 22.5 0.00 0.00 0.00 49 1012.0
20260507161013 8 12 11.3 20.9 0.00 0.00 0.00 49 1011.9
20260507160515 8 292 9.7 19.3 0.00 0.00 0.00 49 1011.9
20260507160035 7 260 6.4 16.1 0.00 0.00 0.00 51 1012.0
20260507155516 7 279 9.7 19.3 0.00 0.00 0.00 50 1012.1
20260507155016 7 218 8.0 20.9 0.00 0.00 0.00 50 1012.3
20260507154534 7 266 12.9 22.5 0.00 0.00 0.00 52 1012.1
20260507154012 7 259 11.3 22.5 0.00 0.00 0.00 52 1012.2
20260507153515 7 283 9.7 19.3 0.00 0.00 0.00 53 1012.2
20260507153033 7 305 6.4 16.1 0.00 0.00 0.00 51 1012.3
20260507152516 7 254 6.4 16.1 0.00 0.00 0.00 57 1012.3
20260507152022 7 9 8.0 16.1 0.00 0.00 0.00 52 1012.3
20260507151534 7 340 8.0 17.7 0.00 0.00 0.00 54 1012.3
20260507151015 7 240 4.8 19.3 0.00 0.00 0.00 54 1012.3
20260507150518 7 278 9.7 19.3 0.00 0.00 0.00 55 1012.4
20260507150038 7 249 9.7 16.1 0.00 0.00 0.00 53 1012.5
20260507145513 7 212 4.8 16.1 0.00 0.00 0.00 57 1012.4
20260507145023 7 348 8.0 16.1 0.00 0.00 0.00 58 1012.5
20260507144532 6 215 4.8 16.1 0.00 0.00 0.00 55 1012.6
20260507144014 6 314 8.0 16.1 0.00 0.00 0.00 56 1012.8
20260507143515 6 323 4.8 16.1 0.00 0.00 0.00 55 1012.7
20260507143038 6 325 4.8 16.1 0.00 0.00 0.00 56 1012.7
20260507142515 6 315 4.8 16.1 0.00 0.00 0.00 56 1012.9
20260507142025 6 301 3.2 12.9 0.00 0.00 0.00 57 1012.9
20260507141546 6 340 4.8 12.9 0.00 0.00 0.00 59 1013.0
20260507141014 6 342 3.2 8.0 0.00 0.00 0.00 60 1013.0
20260507140516 6 347 1.6 8.0 0.00 0.00 0.00 60 1013.0
20260507140034 6 355 3.2 8.0 0.00 0.00 0.00 59 1013.0
20260507135515 6 355 3.2 14.5 0.00 0.00 0.00 62 1012.9
20260507135015 5 288 3.2 14.5 0.00 0.00 0.00 63 1013.0
20260507134535 5 294 4.8 11.3 0.00 0.00 0.00 64 1013.0
20260507134014 5 317 4.8 8.0 0.00 0.00 0.00 66 1013.0
20260507133514 5 327 3.2 6.4 0.00 0.00 0.00 64 1013.0
20260507133057 5 327 3.2 8.0 0.00 0.00 0.00 64 1013.0
20260507132520 5 313 3.2 8.0 0.00 0.00 0.00 65 1013.0
20260507132012 5 304 1.6 6.4 0.00 0.00 0.00 67 1013.0
20260507131538 4 304 3.2 6.4 0.00 0.00 0.00 69 1013.2
20260507131015 4 303 3.2 6.4 0.00 0.00 0.00 70 1013.3
20260507130515 3 288 3.2 6.4 0.00 0.00 0.00 71 1013.4
20260507130036 3 284 1.6 6.4 0.00 0.00 0.00 74 1013.4
20260507125514 3 284 1.6 9.7 0.00 0.00 0.00 74 1013.4
20260507125013 3 284 3.2 9.7 0.00 0.00 0.00 75 1013.4
20260507124534 3 284 3.2 6.4 0.00 0.00 0.00 73 1013.4
20260507124013 3 284 1.6 6.4 0.00 0.00 0.00 72 1013.3
20260507123518 3 284 3.2 6.4 0.00 0.00 0.00 72 1013.3
20260507123038 3 284 3.2 6.4 0.00 0.00 0.00 73 1013.4
20260507122514 3 285 3.2 6.4 0.00 0.00 0.00 73 1013.3
20260507122014 3 285 1.6 4.8 0.00 0.00 0.00 74 1013.2
20260507121534 2 285 1.6 4.8 0.00 0.00 0.00 74 1013.2
20260507121015 2 285 3.2 4.8 0.00 0.00 0.00 73 1013.2
20260507120515 2 285 0.0 3.2 0.00 0.00 0.00 72 1013.1
20260507120035 2 0 0.0 3.2 0.00 0.00 0.00 71 1013.1
20260507115515 2 0 0.0 3.2 0.00 0.00 0.00 70 1013.1
20260507115013 2 285 1.6 4.8 0.00 0.00 0.00 70 1013.1
20260507114537 2 285 0.0 6.4 0.00 0.00 0.00 70 1013.1
20260507114014 2 285 3.2 6.4 0.00 0.00 0.00 69 1013.0
20260507113513 2 285 3.2 6.4 0.00 0.00 0.00 70 1013.0
20260507113036 2 285 3.2 4.8 0.00 0.00 0.00 70 1013.0
20260507112514 2 287 1.6 4.8 0.00 0.00 0.00 70 1012.9
20260507112018 2 287 3.2 4.8 0.00 0.00 0.00 70 1012.9
20260507111532 2 287 1.6 6.4 0.00 0.00 0.00 70 1012.8
20260507111013 2 311 1.6 6.4 0.00 0.00 0.00 70 1012.9
20260507110513 2 311 1.6 6.4 0.00 0.00 0.00 69 1012.9
20260507110039 2 311 1.6 4.8 0.00 0.00 0.00 70 1012.8
20260507105514 2 311 0.0 4.8 0.00 0.00 0.00 70 1012.8
20260507105015 2 0 0.0 4.8 0.00 0.00 0.00 71 1012.8
20260507104534 2 0 1.6 4.8 0.00 0.00 0.00 71 1012.8
20260507104014 1 311 0.0 3.2 0.00 0.00 0.00 71 1012.8
20260507103513 2 0 0.0 3.2 0.00 0.00 0.00 71 1012.7
20260507103039 2 311 0.0 3.2 0.00 0.00 0.00 72 1012.8
20260507102515 2 0 0.0 1.6 0.00 0.00 0.00 72 1012.8
20260507102017 2 0 0.0 3.2 0.00 0.00 0.00 72 1012.9
20260507101538 2 0 0.0 3.2 0.00 0.00 0.00 72 1012.9
20260507101015 2 0 0.0 1.6 0.00 0.00 0.00 73 1012.8
20260507100514 2 0 0.0 1.6 0.00 0.00 0.00 73 1012.9
20260507100036 2 0 0.0 1.6 0.00 0.00 0.00 73 1012.9
20260507095516 2 0 0.0 3.2 0.00 0.00 0.00 73 1013.0
20260507095014 2 0 0.0 3.2 0.00 0.00 0.00 73 1013.0
20260507094537 2 311 0.0 3.2 0.00 0.00 0.00 73 1013.0
20260507094020 1 0 1.6 3.2 0.00 0.00 0.00 73 1013.1
20260507093515 1 0 0.0 1.6 0.00 0.00 0.00 74 1013.1
20260507093032 1 311 0.0 1.6 0.00 0.00 0.00 74 1013.0
20260507092513 2 0 0.0 3.2 0.00 0.00 0.00 73 1013.2
20260507092013 2 0 0.0 3.2 0.00 0.00 0.00 73 1013.1
20260507091535 2 0 0.0 3.2 0.00 0.00 0.00 72 1013.0
20260507091015 2 0 0.0 3.2 0.00 0.00 0.00 72 1013.0
20260507090513 2 0 0.0 4.8 0.00 0.00 0.00 71 1013.0
20260507090030 2 0 0.0 4.8 0.00 0.00 0.00 71 1013.1
20260507085515 2 311 0.0 4.8 0.00 0.00 0.00 71 1013.2
20260507085013 2 0 1.6 4.8 0.00 0.00 0.00 71 1013.2
20260507084538 2 311 0.0 3.2 0.00 0.00 0.00 71 1013.3
20260507084012 2 0 1.6 4.8 0.00 0.00 0.00 71 1013.2
20260507083516 2 311 1.6 4.8 0.00 0.00 0.00 72 1013.3
20260507083032 2 311 0.0 4.8 0.00 0.00 0.00 71 1013.3
20260507082514 2 311 1.6 4.8 0.00 0.00 0.00 71 1013.3
20260507082014 2 311 1.6 4.8 0.00 0.00 0.00 72 1013.3
20260507081538 2 311 1.6 4.8 0.00 0.00 0.00 72 1013.3
20260507081013 2 311 1.6 4.8 0.00 0.00 0.00 72 1013.2
20260507080514 2 311 3.2 4.8 0.00 0.00 0.00 72 1013.3
20260507080032 2 311 1.6 3.2 0.00 0.00 0.00 71 1013.2
20260507075515 2 0 0.0 3.2 0.00 0.00 0.00 70 1013.3
20260507075014 2 311 1.6 3.2 0.00 0.00 0.00 70 1013.3
20260507074534 2 311 1.6 3.2 0.00 0.00 0.00 70 1013.3
20260507074013 2 311 1.6 4.8 0.00 0.00 0.00 70 1013.3
20260507073515 3 311 1.6 6.4 0.00 0.00 0.00 70 1013.3
20260507073032 3 311 1.6 6.4 0.00 0.00 0.00 70 1013.4
20260507072513 3 311 3.2 6.4 0.00 0.00 0.00 69 1013.5
20260507072013 3 311 3.2 6.4 0.00 0.00 0.00 69 1013.5
20260507071535 3 311 3.2 6.4 0.00 0.00 0.00 70 1013.6
20260507071013 3 311 3.2 6.4 0.00 0.00 0.00 69 1013.7
20260507070515 3 312 1.6 4.8 0.00 0.00 0.00 69 1013.5
20260507070045 3 312 1.6 6.4 0.00 0.00 0.00 68 1013.8
20260507065514 3 312 3.2 6.4 0.00 0.00 0.00 69 1013.8
20260507065016 3 0 1.6 4.8 0.00 0.00 0.00 68 1013.7
20260507064535 3 312 1.6 4.8 0.00 0.00 0.00 67 1013.7
20260507064015 3 312 1.6 4.8 0.00 0.00 0.00 67 1013.8
20260507063513 3 312 1.6 4.8 0.00 0.00 0.00 67 1013.9
20260507063035 3 312 0.0 4.8 0.00 0.00 0.00 66 1013.8
20260507062511 3 312 0.0 6.4 0.00 0.00 0.00 66 1013.8
20260507062016 3 312 1.6 6.4 0.00 0.00 0.00 65 1013.8
20260507061532 3 316 1.6 4.8 0.00 0.00 0.00 67 1013.9
20260507061020 3 316 1.6 6.4 0.00 0.00 0.00 67 1014.0
20260507060515 3 316 1.6 6.4 0.00 0.00 0.00 67 1014.0
20260507060034 3 316 1.6 4.8 0.00 0.00 0.00 67 1014.1
20260507055513 3 316 1.6 6.4 0.00 0.00 0.00 68 1014.1
20260507055014 3 316 1.6 6.4 0.00 0.00 0.00 68 1014.2
20260507054533 3 316 1.6 4.8 0.00 0.00 0.00 69 1014.2
20260507054013 3 316 1.6 4.8 0.00 0.00 0.00 68 1014.2
20260507053514 3 316 0.0 3.2 0.00 0.00 0.00 68 1014.0
20260507053032 3 316 0.0 4.8 0.00 0.00 0.00 69 1014.1
20260507052513 3 0 0.0 4.8 0.00 0.00 0.00 70 1014.0
20260507052016 3 0 0.0 3.2 0.00 0.00 0.00 70 1014.1
20260507051532 3 0 0.0 3.2 0.00 0.00 0.00 70 1014.2
20260507051015 3 316 0.0 4.8 0.00 0.00 0.00 70 1014.1
20260507050514 3 316 1.6 4.8 0.00 0.00 0.00 70 1014.3
20260507050035 3 316 0.0 4.8 0.00 0.00 0.00 69 1014.3
20260507045515 3 316 1.6 4.8 0.00 0.00 0.00 69 1014.4
20260507045015 3 316 1.6 4.8 0.00 0.00 0.00 68 1014.3
20260507044532 3 316 1.6 4.8 0.00 0.00 0.00 67 1014.3
20260507044015 3 316 0.0 4.8 0.00 0.00 0.00 66 1014.3
20260507043514 3 0 1.6 4.8 0.00 0.00 0.00 66 1014.3
20260507043031 3 316 1.6 4.8 0.00 0.00 0.00 66 1014.4
20260507042513 3 316 1.6 4.8 0.00 0.00 0.00 65 1014.4
20260507042021 3 316 1.6 4.8 0.00 0.00 0.00 65 1014.4
20260507041530 4 316 1.6 4.8 0.00 0.00 0.00 65 1014.4
20260507041015 4 316 1.6 4.8 0.00 0.00 0.00 63 1014.5
20260507040514 4 316 1.6 4.8 0.00 0.00 0.00 62 1014.6
20260507040041 4 316 1.6 4.8 0.00 0.00 0.00 62 1014.6
20260507035518 4 316 1.6 4.8 0.00 0.00 0.00 61 1014.6
20260507035014 4 316 1.6 4.8 0.00 0.00 0.00 61 1014.6
20260507034541 4 316 1.6 4.8 0.00 0.00 0.00 61 1014.7
20260507034020 4 316 1.6 4.8 0.00 0.00 0.00 61 1014.7
20260507033513 4 0 0.0 3.2 0.00 0.00 0.00 61 1014.6
20260507033044 4 316 0.0 3.2 0.00 0.00 0.00 59 1014.7
20260507032516 5 316 0.0 3.2 0.00 0.00 0.00 59 1014.8
20260507032017 5 316 1.6 3.2 0.00 0.00 0.00 59 1014.8
20260507031545 5 316 1.6 3.2 0.00 0.00 0.00 59 1014.9
20260507031016 5 316 1.6 3.2 0.00 0.00 0.00 59 1014.9
20260507030516 5 316 1.6 3.2 0.00 0.00 0.00 59 1014.9
20260507030033 5 316 1.6 3.2 0.00 0.00 0.00 59 1014.9
20260507025516 4 316 1.6 3.2 0.00 0.00 0.00 59 1014.9
20260507025018 4 316 1.6 3.2 0.00 0.00 0.00 60 1015.0
20260507024536 4 316 0.0 1.6 0.00 0.00 0.00 59 1015.0
20260507024013 4 0 0.0 0.0 0.00 0.00 0.00 59 1015.0
20260507023515 4 0 0.0 0.0 0.00 0.00 0.00 59 1015.0
20260507023034 4 0 0.0 0.0 0.00 0.00 0.00 59 1015.1
20260507022515 4 0 0.0 1.6 0.00 0.00 0.00 59 1015.1
20260507022014 4 0 0.0 1.6 0.00 0.00 0.00 59 1015.1
20260507021536 5 0 0.0 3.2 0.00 0.00 0.00 59 1015.2
20260507021015 5 0 0.0 4.8 0.00 0.00 0.00 59 1015.1
20260507020515 5 316 1.6 4.8 0.00 0.00 0.00 60 1015.2
20260507020034 5 316 1.6 4.8 0.00 0.00 0.00 60 1015.3
20260507015516 5 0 0.0 4.8 0.00 0.00 0.00 60 1015.2
20260507015016 5 316 3.2 4.8 0.00 0.00 0.00 59 1015.2
20260507014542 5 316 1.6 4.8 0.00 0.00 0.00 59 1015.3
20260507014016 5 316 1.6 4.8 0.00 0.00 0.00 59 1015.3
20260507013513 5 316 1.6 6.4 0.00 0.00 0.00 59 1015.3
20260507013039 5 316 1.6 9.7 0.00 0.00 0.00 60 1015.2
20260507012515 5 311 1.6 9.7 0.00 0.00 0.00 59 1015.3
20260507012016 5 311 3.2 12.9 0.00 0.00 0.00 58 1015.2
20260507011539 5 319 4.8 12.9 0.00 0.00 0.00 59 1015.2
20260507011013 5 294 3.2 9.7 0.00 0.00 0.00 59 1015.2
20260507010516 5 350 3.2 9.7 0.00 0.00 0.00 60 1015.2
20260507010041 5 315 1.6 8.0 0.00 0.00 0.00 59 1015.1
20260507005514 5 325 1.6 12.9 0.00 0.00 0.00 59 1015.1
20260507005019 5 330 3.2 14.5 0.00 0.00 0.00 58 1015.1
20260507004532 5 336 8.0 14.5 0.00 0.00 0.00 58 1015.2
20260507004016 5 304 6.4 14.5 0.00 0.00 0.00 58 1015.2
20260507003515 5 317 4.8 14.5 0.00 0.00 0.00 57 1015.2
20260507003033 5 292 6.4 17.7 0.00 0.00 0.00 57 1015.2
20260507002515 5 299 9.7 19.3 0.00 0.00 0.00 56 1015.3
20260507002016 5 279 11.3 19.3 0.00 0.00 0.00 57 1015.3
20260507001602 5 303 8.0 22.5 0.00 0.00 0.00 56 1015.3
20260507001012 5 296 11.3 24.1 0.00 0.00 0.00 56 1015.2
20260507000514 5 318 9.7 24.1 0.00 0.00 0.00 57 1015.3
20260507000035 5 291 4.8 16.1 0.00 0.00 0.00 57 1015.3
20260506235516 5 310 6.4 16.1 0.00 0.00 0.00 57 1015.3
20260506235015 5 290 8.0 19.3 0.00 0.00 0.00 56 1015.1
20260506234534 5 304 8.0 19.3 0.00 0.00 0.00 56 1015.2
20260506234013 5 277 11.3 20.9 0.00 0.00 0.00 55 1015.1
20260506233513 6 327 12.9 22.5 0.00 0.00 0.00 56 1015.1
20260506233032 5 274 9.7 22.5 0.00 0.00 0.00 56 1015.2
20260506232513 5 273 11.3 20.9 0.00 0.00 0.00 55 1015.2
20260506232013 6 339 6.4 19.3 0.00 0.00 0.00 56 1015.3
20260506231535 6 302 9.7 19.3 0.00 0.00 0.00 56 1015.3
20260506231013 6 278 8.0 17.7 0.00 0.00 0.00 57 1015.3
20260506230515 6 355 9.7 22.5 0.00 0.00 0.00 55 1015.2
20260506230036 5 281 12.9 22.5 0.00 0.00 0.00 55 1015.3
20260506225516 5 288 9.7 19.3 0.00 0.00 0.00 56 1015.3
20260506225023 5 337 8.0 19.3 0.00 0.00 0.00 56 1015.4
20260506224534 5 316 6.4 19.3 0.00 0.00 0.00 57 1015.4
20260506224014 6 338 9.7 19.3 0.00 0.00 0.00 56 1015.4
20260506223515 6 313 4.8 17.7 0.00 0.00 0.00 55 1015.4
20260506223033 6 271 9.7 17.7 0.00 0.00 0.00 56 1015.4
20260506222514 6 302 8.0 17.7 0.00 0.00 0.00 55 1015.4
20260506222016 6 302 4.8 16.1 0.00 0.00 0.00 56 1015.5
20260506221534 6 313 4.8 16.1 0.00 0.00 0.00 57 1015.5
20260506221013 5 274 6.4 14.5 0.00 0.00 0.00 57 1015.5
20260506220513 5 302 8.0 14.5 0.00 0.00 0.00 58 1015.7
20260506220032 5 332 8.0 16.1 0.00 0.00 0.00 57 1015.6
20260506215513 5 250 6.4 16.1 0.00 0.00 0.00 56 1015.7
20260506215015 5 276 8.0 17.7 0.00 0.00 0.00 56 1015.6
20260506214533 5 250 9.7 17.7 0.00 0.00 0.00 56 1015.6
20260506214018 5 279 11.3 17.7 0.00 0.00 0.00 56 1015.7
20260506213517 5 266 8.0 22.5 0.00 0.00 0.00 56 1015.7
20260506213032 5 305 12.9 22.5 0.00 0.00 0.00 55 1015.8
20260506212515 5 291 8.0 17.7 0.00 0.00 0.00 56 1015.8
20260506212017 5 246 9.7 16.1 0.00 0.00 0.00 55 1015.7
20260506211531 5 285 9.7 16.1 0.00 0.00 0.00 55 1015.8
20260506211014 5 261 9.7 16.1 0.00 0.00 0.00 56 1015.7
20260506210514 5 261 8.0 25.7 0.00 0.00 0.00 58 1015.7
20260506210035 5 282 8.0 25.7 0.00 0.00 0.00 56 1015.7
20260506205513 5 265 11.3 25.7 0.00 0.00 0.00 57 1015.8
20260506205014 5 344 6.4 20.9 0.00 0.00 0.00 57 1015.7
20260506204535 5 284 8.0 20.9 0.00 0.00 0.00 56 1015.8
20260506204014 5 250 11.3 20.9 0.00 0.00 0.00 55 1015.8
20260506203513 5 256 9.7 17.7 0.00 0.00 0.00 56 1015.8
20260506203038 5 312 4.8 19.3 0.00 0.00 0.00 56 1015.8
20260506202513 5 286 8.0 19.3 0.00 0.00 0.00 57 1015.9
20260506202014 5 316 9.7 19.3 0.00 0.00 0.00 58 1015.8
20260506201538 5 288 9.7 20.9 0.00 0.00 0.00 56 1015.8